Hancock, MI

7:38 AM EST on February 06, 2016 (GMT -0500)
Houghton County Memorial

Weather History for KCMX - December, 2013

Change the Weather History Date:

Monday, December 23, 2013

  Actual Average Record
Temperature  
Mean Temperature 12 °F -  
Max Temperature 14 °F 23 °F 41 °F (1957)
Min Temperature 10 °F 13 °F -10 °F (1960)
Degree Days  
Heating Degree Days 53    
Moisture  
Dew Point 5 °F    
Average Humidity 74    
Maximum Humidity 81    
Minimum Humidity 67    
Precipitation  
Precipitation 0.00 in - - ()
Sea Level Pressure  
Sea Level Pressure 30.31 in    
Wind  
Wind Speed 7 mph (NE)    
Max Wind Speed 14 mph    
Max Gust Speed -    
Visibility 4 miles    
Events Snow    
Averages and records for this station are not official NWS values.
T = Trace of Precipitation, MM = Missing Value Source: NWS Daily Summary

Daily Weather History Graph

Daily Weather History Graph

Search for Another Location

Airport or City:

Trip Planner

Search our weather history database for the weather conditions in past years. The results will help you decide how hot, cold, wet, or windy it might be!

Date:

Astronomy

Dec. 23, 2013 Rise Set
Actual Time 8:38 AM EST 5:07 PM EST
Civil Twilight 8:02 AM EST 5:43 PM EST
Nautical Twilight 7:23 AM EST 6:22 PM EST
Astronomical Twilight 6:46 AM EST 6:59 PM EST
Moon 11:41 PM EST (12/23) 11:42 AM EST (12/23)
Length of Visible Light 9h 40m
Length of Day
8h 29m
Waning Gibbous, 68% of the Moon is Illuminated
Dec 23
Waning Gibbous
Dec 25
Last Quarter
Jan 1
New
Jan 7
First Quarter
Jan 15
Full

Hourly Weather History & Observations

Time (EST) Temp. Windchill Dew Point Humidity Pressure Visibility Wind Dir Wind Speed Gust Speed Precip Events Conditions
12:53 AM 14.0 °F 5.1 °F 9.0 °F 80% 30.19 in 6.0 mi NNE 5.8 mph - 0.00 in Snow Light Snow
1:53 AM 14.0 °F 3.9 °F 8.1 °F 77% 30.20 in 5.0 mi NE 6.9 mph - 0.00 in Snow Light Snow
2:53 AM 14.0 °F 6.5 °F 8.1 °F 77% 30.21 in 4.0 mi NNE 4.6 mph - 0.00 in Snow Light Snow
3:53 AM 14.0 °F 3.9 °F 8.1 °F 77% 30.23 in 6.0 mi NE 6.9 mph - 0.00 in Snow Light Snow
4:53 AM 12.9 °F 5.2 °F 7.0 °F 77% 30.24 in 6.0 mi NE 4.6 mph - 0.00 in Snow Light Snow
5:53 AM 12.9 °F 6.9 °F 8.1 °F 81% 30.25 in 3.0 mi NE 3.5 mph - 0.00 in Snow Light Snow
6:45 AM 12.2 °F 2.9 °F 6.8 °F 79% 30.19 in 2.5 mi NE 5.8 mph - 0.00 in Snow Light Snow
6:53 AM 12.9 °F 2.6 °F 7.0 °F 77% 30.26 in 3.0 mi NE 6.9 mph - 0.00 in Snow Light Snow
7:53 AM 12.0 °F 4.1 °F 7.0 °F 80% 30.28 in 5.0 mi NE 4.6 mph - 0.00 in Snow Light Snow
8:38 AM 12.2 °F 4.3 °F 6.8 °F 79% 30.22 in 1.8 mi NE 4.6 mph - 0.00 in Snow Light Snow
8:49 AM 12.2 °F 4.3 °F 6.8 °F 79% 30.23 in 3.0 mi NNE 4.6 mph - 0.00 in Snow Light Snow
8:50 AM 12.0 °F 4.1 °F 6.1 °F 77% 30.30 in 3.0 mi NNE 4.6 mph - 0.00 in Snow Light Snow
9:53 AM 12.9 °F 1.6 °F 6.1 °F 74% 30.32 in 4.0 mi NE 8.1 mph - 0.00 in   Haze
10:53 AM 12.9 °F -0.9 °F 5.0 °F 71% 30.34 in 4.0 mi NE 11.5 mph - 0.00 in Snow Light Snow
11:36 AM 12.2 °F 0.7 °F 6.8 °F 79% 30.27 in 4.0 mi NE 8.1 mph - 0.00 in   Haze
11:53 AM 12.9 °F 2.6 °F 6.1 °F 74% 30.35 in 3.0 mi NNE 6.9 mph - 0.00 in Snow Light Snow
12:53 PM 12.9 °F -0.2 °F 5.0 °F 71% 30.34 in 3.0 mi NE 10.4 mph - 0.00 in Snow Light Snow
1:00 PM 12.2 °F 0.7 °F 5.0 °F 73% 30.27 in 2.0 mi NE 8.1 mph - 0.00 in Snow Light Snow
1:11 PM 12.2 °F -1.0 °F 3.2 °F 67% 30.27 in 5.0 mi NE 10.4 mph - 0.00 in   Haze
1:53 PM 12.9 °F -1.6 °F 3.9 °F 67% 30.35 in 5.0 mi NNE 12.7 mph - 0.00 in   Haze
2:27 PM 12.2 °F -3.1 °F 5.0 °F 73% 30.28 in 2.0 mi NE 13.8 mph - 0.00 in Snow Light Snow
2:53 PM 12.9 °F 1.6 °F 5.0 °F 71% 30.36 in 2.5 mi NNE 8.1 mph - 0.00 in Snow Light Snow
3:03 PM 12.2 °F 0.7 °F 6.8 °F 79% 30.29 in 1.2 mi ENE 8.1 mph - 0.00 in Snow Light Snow
3:20 PM 12.2 °F -1.8 °F 3.2 °F 67% 30.29 in 3.0 mi NE 11.5 mph - 0.00 in Snow Light Snow
3:27 PM 12.2 °F -1.8 °F 3.2 °F 67% 30.30 in 3.0 mi NNE 11.5 mph - 0.00 in   Haze
3:35 PM 12.2 °F -0.2 °F 3.2 °F 67% 30.30 in 2.0 mi NE 9.2 mph - 0.00 in Snow Light Snow
3:48 PM 12.2 °F -0.2 °F 5.0 °F 73% 30.30 in 1.2 mi NNE 9.2 mph - 0.00 in Snow Light Snow
3:53 PM 12.0 °F 0.5 °F 5.0 °F 73% 30.37 in 1.0 mi NE 8.1 mph - 0.00 in Snow Light Snow
4:14 PM 12.2 °F -1.0 °F 5.0 °F 73% 30.30 in 2.0 mi NNE 10.4 mph - 0.00 in Snow Light Snow
4:25 PM 12.2 °F 0.7 °F 5.0 °F 73% 30.31 in 2.5 mi ENE 8.1 mph - 0.00 in Snow Light Snow
4:33 PM 12.2 °F -0.2 °F 3.2 °F 67% 30.31 in 4.0 mi NE 9.2 mph - 0.00 in   Haze
4:53 PM 10.9 °F -2.6 °F 3.9 °F 73% 30.40 in 6.0 mi NE 10.4 mph - 0.00 in   Haze
5:53 PM 10.9 °F 1.4 °F 5.0 °F 77% 30.41 in 4.0 mi NE 5.8 mph - 0.00 in Snow Light Snow
6:53 PM 10.0 °F 0.4 °F 3.9 °F 76% 30.41 in 10.0 mi NE 5.8 mph - 0.00 in   Overcast
7:53 PM 10.0 °F 3.6 °F 3.9 °F 76% 30.42 in 7.0 mi NE 3.5 mph - N/A   Overcast
8:53 PM 10.0 °F 1.8 °F 3.9 °F 76% 30.42 in 10.0 mi NE 4.6 mph - N/A   Overcast
9:53 PM 10.0 °F 1.8 °F 3.9 °F 76% 30.43 in 9.0 mi NE 4.6 mph - N/A   Overcast
10:42 PM 10.4 °F 2.2 °F 3.2 °F 73% 30.34 in 2.0 mi NE 4.6 mph - 0.00 in Snow Light Snow
10:53 PM 10.0 °F 1.8 °F 3.9 °F 76% 30.42 in 2.5 mi NE 4.6 mph - 0.00 in Snow Light Snow
11:00 PM 10.4 °F 4.0 °F 3.2 °F 73% 30.34 in 3.0 mi NE 3.5 mph - 0.00 in Snow Light Snow
11:53 PM 10.0 °F 3.6 °F 3.9 °F 76% 30.41 in 10.0 mi NE 3.5 mph - 0.00 in   Overcast